Regional Weather Roundup
Issued by NWS

Home | Current Version | Previous Version | Graphics & Text | Print | Product List | Glossary On
Versions: 1 2 3 4 5 6 7 8 9 10 11 12 13 14 15 16 17 18 19 20 21 22 23 24 25 26 27 28 29 30 31 32 33 34 35 36 37 38 39 40 41 42 43 44 45 46 47 48 49 50
678
ASUS43 KIND 270009
RWRIN

WEATHER ROUNDUP FOR INDIANA
NATIONAL WEATHER SERVICE INDIANAPOLIS IN
800 PM EDT TUE JUL 26 2016

NOTE: "FAIR" INDICATES FEW OR NO CLOUDS BELOW 12,000 FEET WITH NO
SIGNIFICANT WEATHER AND/OR OBSTRUCTIONS TO VISIBILITY.

* - STATION DOES NOT REPORT WEATHER SUCH AS PRECIPITATION OR FOG.

+ - STATION NOT QUALITY CONTROLLED BY THE NATIONAL WEATHER SERVICE.
    USE DATA WITH CAUTION...ESPECIALLY DEWPOINT AND RELATIVE
    HUMIDITY OBSERVATIONS.

INZ001>003-010>013-019-020-270100-
NORTHWEST INDIANA

CITY           SKY/WX    TMP DP  RH WIND       PRES   REMARKS
GARY /AIRPORT/ MOSUNNY   82  66  57 N8        30.02R
KNOX *+        MOSUNNY   79  59  50 CALM      30.01S
LA PORTE +     SUNNY     82  63  51 N5        30.03R
6HR MIN TEMP:  82; 6HR MAX TEMP:  87;

MICHIGAN CITY+ SUNNY     79  64  61 N5        30.02S
MONTICELLO +   SUNNY     81  65  58 CALM      30.00S
6HR MIN TEMP:  79; 6HR MAX TEMP:  84;

RENSSELAER +   SUNNY     81  68  65 CALM      30.01S
VALPARAISO     SUNNY     82  63  52 N3        30.03R
6HR MIN TEMP:  82; 6HR MAX TEMP:  87;


$$

LMZ046-743>745-270100-
SOUTHERN LAKE MICHIGAN

STATION/POSITION TIME  TEMP    WIND        PRES    WAVE
                       AIR SEA DIR/SP/G            HT
                 (UTC) (F)     (DEG/KT/KT) (MB)    (FT)
BURNS HARBOR     2300   80      60/  7/  8 1016.6S
MICHIGAN CITY    2300   77      30/  7/  8   N/A
5NW MICH CITY    0000   77 78   50/  4/  6   N/A     0

$$

INZ004-005-014>016-021>024-270100-
NORTH CENTRAL INDIANA

CITY           SKY/WX    TMP DP  RH WIND       PRES   REMARKS
ELKHART        SUNNY     82  70  65 N7        30.02R
GOSHEN         SUNNY     84  58  40 E5        30.01S
6HR MIN TEMP:  82; 6HR MAX TEMP:  87;

LOGANSPORT +   SUNNY     81  64  57 CALM      30.02S
PERU/GRISSOM   PTSUNNY   83  63  50 N5        30.00S
6HR MIN TEMP:  81; 6HR MAX TEMP:  86;

ROCHESTER +    SUNNY     82  66  57 CALM      30.02S
SOUTH BEND     PTSUNNY   82  63  52 N6        30.02S
6HR MIN TEMP:  81; 6HR MAX TEMP:  87;

WARSAW +       SUNNY     81  63  54 CALM      30.02R

$$

INZ006>009-017-018-025>027-270100-
NORTHEAST INDIANA

CITY           SKY/WX    TMP DP  RH WIND       PRES   REMARKS
ANGOLA *+        N/A     84  81  89 W5        30.01S HX  98
AUBURN +       SUNNY     82  61  47 CALM      30.01S
FORT WAYNE     MOSUNNY   83  64  52 SW7       30.01R
6HR MIN TEMP:  83; 6HR MAX TEMP:  88;

HUNTINGTON +   SUNNY     81  64  55 S5        30.01S
6HR MIN TEMP:  80; 6HR MAX TEMP:  84;


$$

INZ028-029-035-036-043>045-051>053-270100-
WEST CENTRAL INDIANA

CITY           SKY/WX    TMP DP  RH WIND       PRES   REMARKS
CRAWFORDSVL +  SUNNY     78  69  72 CALM      30.02S
6HR MIN TEMP:  75; 6HR MAX TEMP:  81;

GREENCASTLE +  PTSUNNY   79  73  83 N5        30.02S
LAFAYETTE      SUNNY     81  68  64 CALM      30.00S
6HR MIN TEMP:  80; 6HR MAX TEMP:  85;

TERRE HAUTE    MOSUNNY   82  71  69 N3        30.00S
6HR MIN TEMP:  75; 6HR MAX TEMP:  84;


$$

INZ030>032-037>040-046>048-054>057-064-065-270100-
CENTRAL INDIANA

CITY           SKY/WX    TMP DP  RH WIND       PRES   REMARKS
COLUMBUS       SUNNY     79  75  89 NE5       30.00S
INDIANAPOLIS   PTSUNNY   81  65  58 N8        30.02R
6HR MIN TEMP:  75; 6HR MAX TEMP:  84; 6HR PCP: TRACE;

-EAGLE CREEK   CLOUDY    82  66  58 N5        30.01R
6HR MIN TEMP:  75; 6HR MAX TEMP:  85; 6HR PCP: TRACE;

KOKOMO *+      MOSUNNY   84  63  48 N5        30.01S
6HR MIN TEMP:  81; 6HR MAX TEMP:  88;

MARION +       SUNNY     81  64  56 CALM      30.02S HAZE
MT COMFORT *+  CLOUDY    77  68  73 CALM      30.03R
SHELBYVILLE    MOSUNNY   82  68  62 CALM      30.00S
6HR MIN TEMP:  76; 6HR MAX TEMP:  84; 6HR PCP: TRACE;

ZIONSVILLE +   SUNNY     77  69  74 CALM      30.03S
6HR MIN TEMP:  75; 6HR MAX TEMP:  80;


$$

INZ033-034-041-042-049-050-058-059-270100-
EAST CENTRAL INDIANA

CITY           SKY/WX    TMP DP  RH WIND       PRES   REMARKS
MUNCIE         MOSUNNY   82  65  56 CALM      30.02R
6HR MIN TEMP:  81; 6HR MAX TEMP:  85;


$$

INZ060-061-067>069-081>083-085>088-270100-
SOUTHWEST INDIANA

CITY           SKY/WX    TMP DP  RH WIND       PRES   REMARKS
EVANSVILLE     CLOUDY    82  74  76 NW5       29.97F
6HR MIN TEMP:  82; 6HR MAX TEMP:  89;

HUNTINGBURG *+ CLOUDY    84  75  74 NW3       29.98S
6HR MIN TEMP:  84; 6HR MAX TEMP:  90;

WASHINGTON +   CLOUDY    82  77  87 MISG      29.97S
6HR MIN TEMP:  82; 6HR MAX TEMP:  87;


$$

INZ062-063-066-070>080-084-089>092-270100-
SOUTH CENTRAL AND SOUTHEAST INDIANA

CITY           SKY/WX    TMP DP  RH WIND       PRES   REMARKS
BLOOMINGTON    MOSUNNY   81  72  74 N7        30.00S
6HR MIN TEMP:  79; 6HR MAX TEMP:  86;

MADISON *+     CLOUDY    81  73  78 CALM      30.01S

$$





USA.gov is the U.S. government's official web portal to all federal, state and local government web resources and services.